Flag for Germany Weather past 2 weeks in Wedel, Schleswig-Holstein, Germany

Now
72 °F

Sunny.


Feels Like: 76 °F
Forecast: 53 / 73 °F
Wind: 9 mph from North

Location: Hamburg-Finkenwerder

Current Time: Sep 18, 2014 at 2:28:22 PM

Latest Report: Sep 18, 2014 at 1:50 PM


Visibility: 10 mi

Pressure: 29.92 "Hg

Humidity: 61%

Dew point: 57 °F

Location of WedelLocation

Historic Weather in Wedel — Graph

°F

Wedel temperature yesterday

Maximum temperature yesterday: 75 °F (at 4:50 PM)
Minimum temperature yesterday: 61 °F (at 5:50 AM)
Average temperature yesterday: 69 °F

Past Weeks' High & Low Weather Summary

 TemperatureHumidityPressure
High79 °F (Sep 5, 3:50 PM)100% (Sep 8, 5:50 AM)30.30 "Hg (Sep 8, 5:50 AM)
Low54 °F (Sep 8, 5:50 AM)41% (Sep 4, 4:50 PM)29.89 "Hg (Sep 6, 9:20 AM)
Average66 °F73%30.07 "Hg
* Reported Sep 3 1:20 PM — Sep 18 1:20 PM, Wedel, Weather by CustomWeather, © 2014

Note: Actual official high and low records may vary slightly from our data, if they occured in-between our weather recording intervals... More about our weather records

Advertising

Wedel weather history for previous 24 hours

 ConditionsComfort  
Time TempWeatherWind HumidityBarometerVisibility
1:20 PM
Sep 18
70 °FPassing clouds.9 mph60%29.92 "HgN/A
12:50 PM72 °FPassing clouds.12 mph61%29.92 "HgN/A
12:20 PM70 °FPassing clouds.10 mph60%29.92 "HgN/A
11:50 AM68 °FPassing clouds.12 mph69%29.92 "HgN/A
11:20 AM66 °FPassing clouds.12 mph68%29.95 "HgN/A
10:50 AM64 °FSunny.8 mph73%29.95 "Hg10 mi
10:20 AM64 °FPassing clouds.9 mph73%29.95 "HgN/A
9:50 AM63 °FSunny.7 mph77%29.95 "Hg10 mi
9:20 AM63 °FPassing clouds.9 mph77%29.95 "HgN/A
8:50 AM61 °FSunny.8 mph83%29.95 "Hg10 mi
8:20 AM61 °FSunny.7 mph83%29.95 "Hg10 mi
7:50 AM61 °FPassing clouds.7 mph83%29.95 "HgN/A
7:20 AM59 °FClear.7 mph88%29.95 "Hg10 mi
6:50 AM59 °FClear.6 mph88%29.95 "Hg10 mi
6:20 AM61 °FClear.6 mph83%29.95 "Hg10 mi
5:50 AM61 °FPassing clouds.7 mph83%29.92 "HgN/A
7:20 PM
Sep 17
72 °FPassing clouds.9 mph61%29.95 "HgN/A
6:50 PM72 °FPassing clouds.9 mph61%29.95 "HgN/A
6:20 PM73 °FPassing clouds.10 mph57%29.95 "HgN/A
5:50 PM73 °FPassing clouds.13 mph57%29.95 "HgN/A
5:20 PM75 °FPartly sunny.9 mph54%29.95 "HgN/A
4:50 PM75 °FScattered clouds.12 mph54%29.98 "HgN/A
4:20 PM73 °FScattered clouds.12 mph57%29.98 "HgN/A
3:50 PM73 °FPassing clouds.10 mph57%29.98 "HgN/A
3:20 PM73 °FPassing clouds.9 mph57%29.98 "HgN/A
2:50 PM73 °FSunny.12 mph57%29.98 "Hg10 mi
2:20 PM73 °FPassing clouds.10 mph57%30.01 "HgN/A
Weather by CustomWeather, © 2014

See weather overviewHow to use our weather pages